Location: Ahausen
(50.4985°N, 8.2722°E)
Time: 03:08:18
(UTC+00:00)

ITUPSAT 1 - Visible Passes

Search period start: 29 June 2022 00:00
Search period end: 09 July 2022 00:00
Orbit: 700 x 712 km, 98.6° (Epoch: 28 June)

Date Brightness Start Highest point End Pass type
(mag) Time Alt. Az. Time Alt. Az. Time Alt. Az.
29 Jun ? 21:02:47 10° N 21:07:02 32° WNW 21:11:15 10° SW visible
30 Jun ? 21:47:35 10° NNW 21:50:26 16° NW 21:53:16 10° W visible
01 Jul ? 20:52:35 10° N 20:57:02 39° WNW 21:01:28 10° SW visible
02 Jul ? 21:37:12 10° NNW 21:40:30 19° WNW 21:43:47 10° W visible
03 Jul ? 20:42:25 10° N 20:47:01 47° WNW 20:51:36 10° SW visible
04 Jul ? 21:26:52 10° N 21:30:32 22° WNW 21:34:12 10° WSW visible
05 Jul ? 20:32:16 10° N 20:36:59 58° WNW 20:41:41 10° SSW visible
05 Jul ? 22:12:36 10° NW 22:13:47 11° NW 22:14:59 10° WNW visible
06 Jul ? 21:16:36 10° N 21:20:34 26° WNW 21:24:31 10° WSW visible
07 Jul ? 20:22:08 10° N 20:26:56 71° WNW 20:31:42 10° SSW visible
07 Jul ? 22:01:44 10° NNW 22:03:53 13° NW 22:06:02 10° WNW visible
08 Jul ? 21:06:22 10° N 21:10:34 31° WNW 21:14:47 10° SW visible
